Terug naar catalogus

ARIANE 1 DEB

ActiefSSO
NORAD 17121·DEBRIS·🇫🇷 France

Gelanceerd Feb 22, 1986 vanaf Guiana Space Centre

Loading…

Volgende Passages (komende 24 uur)

TLE

VersSource: Space-Track

Epoch: Sep 14, 2026, 10:41 UTC

1 17121U 86019R   26257.44527978  .00000582  00000-0  21126-3 0  9994
2 17121  98.3032 245.0549 0054002 158.4235 353.8027 14.35940033 70442

Volg ARIANE 1 DEB in realtime met AllMySat

Download on the App Store